4XCIW LLKS-LLIB

Flight info

Callsign 4XCIW
Flight time 0h 12m
Altitude 1500
Route DCT
Aircraft C172/L-V/N

Departure

Time 2026-04-21 07:17
Airport Kiryat Shmona Airport (LLKS)

Arrival

Time 2026-04-21 07:29
Airport Rosh Pina Airport (LLIB)
Time Latitude Longitude Altitude Speed Heading
2026-04-21 07:09 33.21332 35.59223 315 ft 0 kts 128°
2026-04-21 07:14 33.21327 35.59231 314 ft 4 kts 129°
2026-04-21 07:14 33.21305 35.59243 314 ft 3 kts 196°
2026-04-21 07:14 33.21274 35.59217 311 ft 7 kts 216°
2026-04-21 07:14 33.21219 35.59183 309 ft 9 kts 162°
2026-04-21 07:15 33.21207 35.59194 309 ft 0 kts 129°
2026-04-21 07:15 33.21198 35.59213 309 ft 6 kts 106°
2026-04-21 07:16 33.21252 35.59291 313 ft 31 kts 36°
2026-04-21 07:16 33.21568 35.59573 345 ft 74 kts 32°
2026-04-21 07:16 33.21916 35.59997 588 ft 71 kts 47°
2026-04-21 07:16 33.22194 35.60514 792 ft 73 kts 54°
2026-04-21 07:17 33.22458 35.60999 1028 ft 69 kts 47°
2026-04-21 07:17 33.22707 35.61486 1195 ft 76 kts 64°
2026-04-21 07:17 33.22612 35.62177 1251 ft 95 kts 122°
2026-04-21 07:17 33.22176 35.62772 1319 ft 97 kts 139°
2026-04-21 07:18 33.21649 35.63319 1351 ft 102 kts 142°
2026-04-21 07:18 33.21065 35.63817 1392 ft 104 kts 150°
2026-04-21 07:18 33.20430 35.64221 1451 ft 102 kts 155°
2026-04-21 07:18 33.19781 35.64564 1486 ft 102 kts 166°
2026-04-21 07:19 33.19097 35.64656 1568 ft 97 kts 184°
2026-04-21 07:19 33.18428 35.64611 1641 ft 96 kts 185°
2026-04-21 07:19 33.17744 35.64586 1669 ft 99 kts 184°
2026-04-21 07:19 33.17062 35.64607 1716 ft 95 kts 184°
2026-04-21 07:20 33.16417 35.64613 1766 ft 91 kts 184°
2026-04-21 07:20 33.15778 35.64621 1774 ft 94 kts 184°
2026-04-21 07:20 33.15109 35.64648 1773 ft 96 kts 183°
2026-04-21 07:20 33.14433 35.64658 1747 ft 99 kts 184°
2026-04-21 07:21 33.13737 35.64649 1738 ft 99 kts 185°
2026-04-21 07:21 33.13039 35.64605 1712 ft 100 kts 188°
2026-04-21 07:21 33.12351 35.64532 1726 ft 97 kts 191°
2026-04-21 07:21 33.11692 35.64411 1738 ft 95 kts 195°
2026-04-21 07:22 33.11036 35.64288 1723 ft 94 kts 198°
2026-04-21 07:22 33.10395 35.64156 1728 ft 93 kts 195°
2026-04-21 07:22 33.09761 35.64034 1744 ft 92 kts 195°
2026-04-21 07:22 33.09114 35.63924 1711 ft 95 kts 193°
2026-04-21 07:23 33.08446 35.63837 1693 ft 96 kts 193°
2026-04-21 07:23 33.07766 35.63742 1633 ft 99 kts 192°
2026-04-21 07:23 33.07076 35.63671 1594 ft 100 kts 194°
2026-04-21 07:23 33.06397 35.63553 1595 ft 96 kts 197°
2026-04-21 07:24 33.05754 35.63434 1628 ft 92 kts 200°
2026-04-21 07:24 33.05167 35.63203 1687 ft 86 kts 208°
2026-04-21 07:24 33.04604 35.62936 1745 ft 84 kts 203°
2026-04-21 07:24 33.04064 35.62668 1781 ft 84 kts 211°
2026-04-21 07:25 33.03537 35.62336 1793 ft 87 kts 204°
2026-04-21 07:25 33.02966 35.62104 1807 ft 87 kts 205°
2026-04-21 07:25 33.02434 35.61792 1811 ft 86 kts 210°
2026-04-21 07:25 33.01899 35.61468 1765 ft 85 kts 210°
2026-04-21 07:26 33.01387 35.61132 1682 ft 82 kts 212°
2026-04-21 07:26 33.00938 35.60838 1661 ft 71 kts 213°
2026-04-21 07:26 33.00522 35.60541 1559 ft 67 kts 220°
2026-04-21 07:26 33.00143 35.60229 1451 ft 66 kts 221°
2026-04-21 07:27 32.99822 35.59856 1369 ft 62 kts 229°
2026-04-21 07:27 32.99533 35.59468 1295 ft 62 kts 231°
2026-04-21 07:27 32.99267 35.59045 1236 ft 61 kts 249°
2026-04-21 07:27 32.99363 35.58590 1217 ft 56 kts 296°
2026-04-21 07:28 32.99567 35.58196 1178 ft 57 kts 298°
2026-04-21 07:28 32.99755 35.57776 1182 ft 58 kts 286°
2026-04-21 07:28 32.99706 35.57304 1147 ft 63 kts 237°
2026-04-21 07:28 32.99341 35.57032 1109 ft 58 kts 210°
2026-04-21 07:29 32.98979 35.56863 1009 ft 50 kts 202°
2026-04-21 07:29 32.98604 35.56874 927 ft 58 kts 172°
2026-04-21 07:29 32.98288 35.57050 895 ft 41 kts 147°
2026-04-21 07:29 32.98049 35.57217 893 ft 37 kts 149°
2026-04-21 07:30 32.97861 35.57346 886 ft 20 kts 153°
2026-04-21 07:30 32.97764 35.57360 886 ft 12 kts 215°
2026-04-21 07:30 32.97726 35.57334 887 ft 1 kts 228°
2026-04-21 07:30 32.97725 35.57332 887 ft 0 kts 231°